Location: Kalisz
(51.7636°N, 18.0893°E)
Time: 07:15:43
(UTC+02:00)

ISS - Visible Passes

Search period start: 27 May 2018 00:00
Search period end: 06 June 2018 00:00
Orbit: 402 x 407 km, 51.6° (Epoch: 27 May)

Date Brightness Start Highest point End Pass type
(mag) Time Alt. Az. Time Alt. Az. Time Alt. Az.
27 May -3.8 00:22:58 10° W 00:26:11 54° SSW 00:26:26 52° S visible
27 May -3.9 21:54:16 10° W 21:57:33 87° S 22:00:51 10° E visible
27 May -4.0 23:30:46 10° W 23:34:02 71° SSW 23:35:43 26° ESE visible
28 May -1.6 01:07:30 10° W 01:08:21 15° WSW 01:08:21 15° WSW visible
28 May -3.9 22:38:33 10° W 22:41:50 84° S 22:45:05 10° E visible
29 May -2.9 00:15:07 10° W 00:17:42 32° SW 00:17:42 32° SW visible
29 May -3.8 21:46:19 10° W 21:49:36 90° E 21:52:53 10° E visible
29 May -3.6 23:22:50 10° W 23:26:00 48° SSW 23:27:06 32° SSE visible
30 May -3.8 22:30:34 10° W 22:33:49 65° SSW 22:36:31 14° ESE visible
31 May -2.0 00:07:25 10° W 00:09:09 19° SW 00:09:09 19° SW visible
31 May -3.9 21:38:19 10° W 21:41:36 80° S 21:44:52 10° ESE visible
31 May -2.8 23:14:55 10° W 23:17:50 30° SSW 23:18:35 26° S visible
01 Jun -3.3 22:22:34 10° W 22:25:42 43° SSW 22:28:03 16° SE visible
02 Jun -1.3 00:00:28 10° WSW 00:00:41 10° WSW 00:00:41 10° WSW visible
02 Jun -2.0 23:07:15 10° W 23:09:31 18° SW 23:10:11 17° SSW visible
03 Jun -2.5 22:14:38 10° W 22:17:26 26° SSW 22:19:41 13° SSE visible
05 Jun -1.6 22:07:01 10° WSW 22:09:01 15° SW 22:10:59 10° S visible
